FW6471 Weather Reports


Display with metric or nautical units.
time (UTC)temp
F
wind
direction
speed
MPH
gust
MPH
rain 1hr
in
rain 24hr
in
rain mn
in
humidity
%
barometer
mb
20260509031117 77 319 1.0 2.0 0.00 0.00 0.00 88 1016.3
20260509030617 77 334 1.0 5.0 0.00 0.00 0.00 88 1016.2
20260509030122 77 316 1.0 2.0 0.00 0.00 0.00 87 1016.2
20260509025616 77 329 2.0 5.0 0.00 0.00 0.00 87 1016.1
20260509025116 77 308 2.0 5.0 0.00 0.00 0.00 87 1016.2
20260509024616 77 321 3.0 3.0 0.00 0.00 0.00 86 1016.2
20260509024115 77 324 1.0 2.0 0.00 0.00 0.00 86 1016.2
20260509023616 77 313 2.0 5.0 0.00 0.00 0.00 85 1016.1
20260509023115 78 331 2.0 5.0 0.00 0.00 0.00 85 1016.1
20260509022616 78 329 2.0 3.0 0.00 0.00 0.00 85 1016.0
20260509021616 78 326 2.0 7.0 0.00 0.00 0.00 83 1015.8
20260509021116 78 319 2.0 8.0 0.00 0.00 0.00 82 1015.8
20260509020615 78 308 3.0 7.0 0.00 0.00 0.00 81 1015.7
20260509020122 79 316 3.0 7.0 0.00 0.00 0.00 81 1015.6
20260509015616 79 306 3.0 7.0 0.00 0.00 0.00 80 1015.6
20260509014615 79 317 3.0 9.0 0.00 0.00 0.00 78 1015.4
20260509014116 80 321 3.0 7.0 0.00 0.00 0.00 77 1015.4
20260509013615 80 319 1.0 5.0 0.00 0.00 0.00 77 1015.4
20260509013115 80 322 2.0 3.0 0.00 0.00 0.00 76 1015.5
20260509012616 80 320 1.0 5.0 0.00 0.00 0.00 76 1015.4
20260509012116 80 318 2.0 5.0 0.00 0.00 0.00 75 1015.3
20260509011116 80 314 2.0 3.0 0.00 0.00 0.00 74 1015.1
20260509010615 80 299 2.0 3.0 0.00 0.00 0.00 74 1015.1
20260509005115 81 329 1.0 3.0 0.00 0.00 0.00 72 1014.8
20260509004616 81 330 2.0 5.0 0.00 0.00 0.00 72 1014.7
20260509004116 81 327 3.0 8.0 0.00 0.00 0.00 71 1014.7
20260509003616 82 321 1.0 7.0 0.00 0.00 0.00 70 1014.7
20260509002616 82 316 1.0 5.0 0.00 0.00 0.00 68 1014.5
20260509002116 82 324 3.0 6.0 0.00 0.00 0.00 67 1014.4
20260509001116 83 333 3.0 5.0 0.00 0.00 0.00 66 1014.3
20260509000615 83 322 2.0 6.0 0.00 0.00 0.00 65 1014.2
20260509000122 83 326 3.0 6.0 0.00 0.00 0.00 65 1014.1
20260508235615 84 320 2.0 5.0 0.00 0.00 0.00 64 1014.0
20260508235115 84 308 2.0 7.0 0.00 0.00 0.00 63 1013.9
20260508234615 84 308 2.0 8.0 0.00 0.00 0.00 64 1013.7
20260508234116 85 312 2.0 8.0 0.00 0.00 0.00 63 1013.7
20260508233616 85 313 3.0 6.0 0.00 0.00 0.00 64 1013.7
20260508233115 85 313 3.0 9.0 0.00 0.00 0.00 64 1013.6
20260508232615 86 313 3.0 6.0 0.00 0.00 0.00 64 1013.5
20260508232116 86 313 5.0 9.0 0.00 0.00 0.00 63 1013.4
20260508231615 87 316 3.0 5.0 0.00 0.00 0.00 62 1013.3
20260508231115 87 295 3.0 9.0 0.00 0.00 0.00 62 1013.3
20260508230615 87 318 2.0 7.0 0.00 0.00 0.00 61 1013.2
20260508230123 88 323 3.0 9.0 0.00 0.00 0.00 60 1013.2
20260508225616 88 308 3.0 12.0 0.00 0.00 0.00 60 1013.1
20260508225116 88 306 5.0 8.0 0.00 0.00 0.00 59 1013.0
20260508224616 89 305 3.0 7.0 0.00 0.00 0.00 57 1012.9
20260508224116 89 274 2.0 9.0 0.00 0.00 0.00 57 1012.9
20260508223116 89 325 3.0 8.0 0.00 0.00 0.00 55 1012.7
20260508222115 90 307 3.0 6.0 0.00 0.00 0.00 54 1012.7
20260508221116 91 284 4.0 7.0 0.00 0.00 0.00 53 1012.7
20260508220615 91 302 1.0 7.0 0.00 0.00 0.00 52 1012.6
20260508220122 91 302 2.0 7.0 0.00 0.00 0.00 52 1012.6
20260508215616 91 323 1.0 3.0 0.00 0.00 0.00 52 1012.6
20260508215115 91 296 1.0 3.0 0.00 0.00 0.00 51 1012.4
20260508214615 91 23 1.0 5.0 0.00 0.00 0.00 51 1012.5
20260508214115 92 300 2.0 3.0 0.00 0.00 0.00 51 1012.5
20260508213615 92 328 5.0 7.0 0.00 0.00 0.00 50 1012.5
20260508213116 92 327 3.0 5.0 0.00 0.00 0.00 50 1012.5
20260508212615 92 287 2.0 8.0 0.00 0.00 0.00 50 1012.5
20260508212115 92 230 3.0 8.0 0.00 0.00 0.00 50 1012.5
20260508211615 93 302 3.0 7.0 0.00 0.00 0.00 49 1012.5
20260508211116 92 322 1.0 6.0 0.00 0.00 0.00 50 1012.4
20260508210615 93 338 5.0 7.0 0.00 0.00 0.00 49 1012.5
20260508210122 93 279 1.0 3.0 0.00 0.00 0.00 49 1012.5
20260508205615 92 262 2.0 5.0 0.00 0.00 0.00 50 1012.5
20260508205115 92 323 2.0 6.0 0.00 0.00 0.00 49 1012.5
20260508204615 92 323 4.0 8.0 0.00 0.00 0.00 49 1012.6
20260508204115 93 315 2.0 3.0 0.00 0.00 0.00 49 1012.6
20260508203617 93 340 4.0 9.0 0.00 0.00 0.00 49 1012.7
20260508203116 94 323 6.0 10.0 0.00 0.00 0.00 48 1012.7
20260508202615 94 316 2.0 7.0 0.00 0.00 0.00 48 1012.9
20260508202116 94 85 1.0 3.0 0.00 0.00 0.00 49 1012.9
20260508201615 93 191 1.0 3.0 0.00 0.00 0.00 49 1013.0
20260508201115 93 319 6.0 10.0 0.00 0.00 0.00 48 1013.1
20260508200615 94 314 1.0 5.0 0.00 0.00 0.00 50 1013.2
20260508200121 93 310 2.0 3.0 0.00 0.00 0.00 50 1013.3
20260508195115 92 309 3.0 5.0 0.00 0.00 0.00 51 1013.3
20260508193615 93 333 1.0 3.0 0.00 0.00 0.00 49 1013.4
20260508193115 94 300 3.0 7.0 0.00 0.00 0.00 50 1013.6
20260508192615 93 246 1.0 2.0 0.00 0.00 0.00 51 1013.6
20260508192115 93 306 1.0 3.0 0.00 0.00 0.00 49 1013.7
20260508191615 94 321 2.0 5.0 0.00 0.00 0.00 49 1013.9
20260508191115 94 305 2.0 8.0 0.00 0.00 0.00 49 1013.9
20260508190615 94 325 5.0 10.0 0.00 0.00 0.00 49 1014.0
20260508190121 94 220 2.0 7.0 0.00 0.00 0.00 48 1014.0
20260508185615 95 320 3.0 6.0 0.00 0.00 0.00 47 1014.2
20260508185116 95 157 1.0 5.0 0.00 0.00 0.00 50 1014.2
20260508184615 94 333 3.0 6.0 0.00 0.00 0.00 50 1014.3
20260508184115 93 173 1.0 6.0 0.00 0.00 0.00 51 1014.4
20260508183615 94 201 3.0 5.0 0.00 0.00 0.00 51 1014.5
20260508183115 94 312 1.0 3.0 0.00 0.00 0.00 51 1014.6
20260508182115 92 307 3.0 8.0 0.00 0.00 0.00 54 1014.9
20260508181615 91 332 3.0 8.0 0.00 0.00 0.00 53 1015.0
20260508181115 92 282 5.0 7.0 0.00 0.00 0.00 53 1015.0
20260508180615 93 331 3.0 7.0 0.00 0.00 0.00 52 1014.9
20260508180121 92 323 3.0 6.0 0.00 0.00 0.00 51 1015.1
20260508175616 92 332 4.0 7.0 0.00 0.00 0.00 52 1015.1
20260508175115 92 310 3.0 8.0 0.00 0.00 0.00 52 1015.0
20260508174615 92 188 3.0 8.0 0.00 0.00 0.00 54 1015.1
20260508174115 92 310 3.0 12.0 0.00 0.00 0.00 54 1015.2
20260508173615 91 7 2.0 6.0 0.00 0.00 0.00 55 1015.2
20260508173115 91 306 3.0 8.0 0.00 0.00 0.00 54 1015.3
20260508172115 91 214 1.0 5.0 0.00 0.00 0.00 58 1015.4
20260508171615 90 336 5.0 10.0 0.00 0.00 0.00 58 1015.6
20260508171115 90 329 2.0 8.0 0.00 0.00 0.00 58 1015.7
20260508170615 91 326 3.0 8.0 0.00 0.00 0.00 57 1015.6
20260508170121 92 315 2.0 7.0 0.00 0.00 0.00 57 1015.7
20260508165616 91 314 2.0 3.0 0.00 0.00 0.00 58 1015.8
20260508165115 89 237 2.0 3.0 0.00 0.00 0.00 60 1015.9
20260508164615 89 307 2.0 5.0 0.00 0.00 0.00 59 1015.9
20260508164115 89 270 1.0 3.0 0.00 0.00 0.00 59 1016.0
20260508163615 89 237 1.0 5.0 0.00 0.00 0.00 59 1016.0
20260508163115 89 313 2.0 10.0 0.00 0.00 0.00 62 1016.2
20260508162616 88 323 4.0 8.0 0.00 0.00 0.00 62 1016.2
20260508162115 89 310 2.0 3.0 0.00 0.00 0.00 61 1016.4
20260508161614 89 304 3.0 5.0 0.00 0.00 0.00 59 1016.4
20260508161114 89 170 2.0 5.0 0.00 0.00 0.00 62 1016.5
20260508160615 88 301 2.0 7.0 0.00 0.00 0.00 62 1016.6
20260508160121 88 326 4.0 8.0 0.00 0.00 0.00 63 1016.7
20260508155615 88 320 3.0 7.0 0.00 0.00 0.00 65 1016.7
20260508154615 88 314 4.0 7.0 0.00 0.00 0.00 64 1016.9
20260508154114 88 309 3.0 7.0 0.00 0.00 0.00 67 1016.9
20260508153615 87 176 2.0 3.0 0.00 0.00 0.00 70 1017.0
20260508153115 85 332 2.0 8.0 0.00 0.00 0.00 71 1017.0
20260508152614 85 332 3.0 8.0 0.00 0.00 0.00 71 1017.0
20260508152115 85 316 2.0 5.0 0.00 0.00 0.00 74 1017.1
20260508151615 84 329 2.0 5.0 0.00 0.00 0.00 76 1017.1
20260508151115 84 305 2.0 5.0 0.00 0.00 0.00 76 1017.1
20260508150615 84 325 3.0 5.0 0.00 0.00 0.00 75 1017.2
20260508150121 84 304 2.0 5.0 0.00 0.00 0.00 74 1017.2
20260508145615 85 293 1.0 3.0 0.00 0.00 0.00 74 1017.3
20260508145114 85 334 2.0 5.0 0.00 0.00 0.00 74 1017.2
20260508144615 84 311 5.0 7.0 0.00 0.00 0.00 74 1017.2
20260508144115 84 310 2.0 3.0 0.00 0.00 0.00 75 1017.2
20260508143615 84 298 1.0 5.0 0.00 0.00 0.00 77 1017.3
20260508142614 83 328 2.0 6.0 0.00 0.00 0.00 77 1017.3
20260508142115 83 186 1.0 3.0 0.00 0.00 0.00 78 1017.3
20260508141615 82 308 1.0 5.0 0.00 0.00 0.00 80 1017.2
20260508141115 81 289 1.0 3.0 0.00 0.00 0.00 82 1017.2
20260508140615 81 325 2.0 5.0 0.00 0.00 0.00 81 1017.2
20260508140121 81 289 1.0 2.0 0.00 0.00 0.00 82 1017.2
20260508135615 81 306 1.0 3.0 0.00 0.00 0.00 82 1017.3
20260508134614 80 334 2.0 5.0 0.00 0.00 0.00 84 1017.3
20260508133614 80 339 1.0 3.0 0.00 0.00 0.00 85 1017.4
20260508133115 80 316 4.0 7.0 0.00 0.00 0.00 86 1017.4
20260508132615 79 313 2.0 7.0 0.00 0.00 0.00 88 1017.4
20260508132114 78 329 2.0 3.0 0.00 0.00 0.00 89 1017.4
20260508131614 78 328 1.0 3.0 0.00 0.00 0.00 90 1017.3
20260508131115 77 334 1.0 3.0 0.00 0.00 0.00 90 1017.2
20260508130614 77 337 2.0 3.0 0.00 0.00 0.00 91 1017.2
20260508130120 76 152 1.0 3.0 0.00 0.00 0.00 92 1017.2
20260508125115 75 304 1.0 3.0 0.00 0.00 0.00 94 1017.3
20260508124615 75 324 2.0 3.0 0.00 0.00 0.00 94 1017.3
20260508124114 74 324 0.0 2.0 0.00 0.00 0.00 95 1017.3
20260508123615 73 324 0.0 1.0 0.00 0.00 0.00 95 1017.3
20260508123115 73 323 0.0 0.0 0.00 0.00 0.00 95 1017.2
20260508122615 72 323 0.0 1.0 0.00 0.00 0.00 95 1017.1
20260508121614 71 323 0.0 1.0 0.00 0.00 0.00 95 1017.0
20260508121115 71 323 0.0 1.0 0.00 0.00 0.00 95 1016.9
20260508120614 70 324 0.0 1.0 0.00 0.00 0.00 95 1016.8
20260508115115 69 324 0.0 1.0 0.00 0.00 0.00 94 1016.7
20260508114614 69 324 0.0 1.0 0.00 0.00 0.00 94 1016.6
20260508113614 69 324 0.0 0.0 0.00 0.00 0.00 94 1016.4
20260508113114 68 324 0.0 1.0 0.00 0.00 0.00 94 1016.3
20260508112615 68 324 0.0 2.0 0.00 0.00 0.00 94 1016.3
20260508112115 68 324 0.0 0.0 0.00 0.00 0.00 94 1016.2
20260508111614 68 324 0.0 0.0 0.00 0.00 0.00 94 1016.1
20260508110615 68 324 0.0 0.0 0.00 0.00 0.00 94 1016.0
20260508110121 68 324 0.0 0.0 0.00 0.00 0.00 94 1015.9
20260508105614 68 324 0.0 0.0 0.00 0.00 0.00 94 1015.8
20260508105115 68 324 0.0 0.0 0.00 0.00 0.00 93 1015.8
20260508104615 68 324 0.0 0.0 0.00 0.00 0.00 93 1015.8
20260508103614 68 324 0.0 0.0 0.00 0.00 0.00 94 1015.6
20260508103114 68 324 0.0 0.0 0.00 0.00 0.00 94 1015.5
20260508102614 68 324 0.0 0.0 0.00 0.00 0.00 94 1015.5
20260508102115 68 324 0.0 0.0 0.00 0.00 0.00 94 1015.3
20260508101615 68 324 0.0 0.0 0.00 0.00 0.00 94 1015.4
20260508101114 67 324 0.0 0.0 0.00 0.00 0.00 93 1015.4
20260508100615 68 324 0.0 0.0 0.00 0.00 0.00 93 1015.3
20260508100121 67 324 0.0 0.0 0.00 0.00 0.00 93 1015.2
20260508095614 67 324 0.0 0.0 0.00 0.00 0.00 93 1015.2
20260508094615 68 324 0.0 0.0 0.00 0.00 0.00 93 1015.2
20260508093614 68 324 0.0 0.0 0.00 0.00 0.00 93 1015.1
20260508093115 68 324 0.0 0.0 0.00 0.00 0.00 93 1015.1
20260508092615 68 324 0.0 0.0 0.00 0.00 0.00 93 1015.0
20260508091614 69 324 0.0 0.0 0.00 0.00 0.00 93 1015.0
20260508091114 68 324 0.0 0.0 0.00 0.00 0.00 93 1015.0
20260508090614 68 324 0.0 0.0 0.00 0.00 0.00 93 1014.9
20260508090121 68 324 0.0 0.0 0.00 0.00 0.00 93 1014.9
20260508085115 69 324 0.0 0.0 0.00 0.00 0.00 93 1014.9
20260508084615 69 324 0.0 0.0 0.00 0.00 0.00 93 1014.8
20260508083615 69 324 0.0 0.0 0.00 0.00 0.00 93 1014.8
20260508082614 69 324 0.0 0.0 0.00 0.00 0.00 93 1014.8
20260508082114 69 324 0.0 0.0 0.00 0.00 0.00 93 1014.9
20260508081614 69 324 0.0 0.0 0.00 0.00 0.00 93 1014.8
20260508081114 70 324 0.0 0.0 0.00 0.00 0.00 93 1014.9
20260508080614 70 324 0.0 0.0 0.00 0.00 0.00 93 1014.9
20260508080120 70 324 0.0 0.0 0.00 0.00 0.00 93 1014.9
20260508075614 70 324 0.0 0.0 0.00 0.00 0.00 93 1014.9
20260508075114 70 324 0.0 0.0 0.00 0.00 0.00 93 1014.9
20260508074114 70 324 0.0 1.0 0.00 0.00 0.00 93 1014.9
20260508073614 70 324 0.0 0.0 0.00 0.00 0.00 93 1015.0
20260508073115 70 324 0.0 1.0 0.00 0.00 0.00 93 1014.9
20260508072614 70 324 0.0 0.0 0.00 0.00 0.00 93 1015.0
20260508071614 70 324 0.0 0.0 0.00 0.00 0.00 93 1015.1
20260508070614 69 324 0.0 0.0 0.00 0.00 0.00 93 1015.2
20260508065114 70 324 0.0 0.0 0.00 0.00 0.00 92 1015.3
20260508063614 70 324 0.0 0.0 0.00 0.00 0.00 92 1015.3
20260508063114 70 324 0.0 0.0 0.00 0.00 0.00 92 1015.4
20260508062114 70 324 0.0 0.0 0.00 0.00 0.00 92 1015.5
20260508061614 70 324 0.0 0.0 0.00 0.00 0.00 92 1015.5
20260508061114 71 324 0.0 0.0 0.00 0.00 0.00 92 1015.6
20260508060614 71 324 0.0 0.0 0.00 0.00 0.00 92 1015.6
20260508060120 71 324 0.0 0.0 0.00 0.00 0.00 92 1015.7
20260508055615 71 324 0.0 0.0 0.00 0.00 0.00 92 1015.7
20260508055114 71 324 0.0 0.0 0.00 0.00 0.00 92 1015.7
20260508054614 71 324 0.0 0.0 0.00 0.00 0.00 92 1015.7
20260508054114 71 324 0.0 0.0 0.00 0.00 0.00 92 1015.7
20260508053614 71 324 0.0 1.0 0.00 0.00 0.00 92 1015.8
20260508053113 71 324 0.0 0.0 0.00 0.00 0.00 92 1015.8
20260508052614 71 324 0.0 0.0 0.00 0.00 0.00 91 1015.9
20260508052115 71 324 0.0 0.0 0.00 0.00 0.00 91 1015.8
20260508051614 71 324 0.0 0.0 0.00 0.00 0.00 91 1015.9
20260508051114 71 324 0.0 0.0 0.00 0.00 0.00 91 1015.9
20260508050615 71 323 0.0 13.0 0.00 0.00 0.00 91 1016.0
20260508050120 71 323 0.0 0.0 0.00 0.00 0.00 90 1016.0
20260508045614 71 324 0.0 0.0 0.00 0.00 0.00 91 1016.0
20260508045114 71 324 0.0 0.0 0.00 0.00 0.00 91 1016.2
20260508044614 71 324 0.0 0.0 0.00 0.00 0.00 91 1016.1
20260508044114 72 324 0.0 0.0 0.00 0.00 0.00 91 1016.1
20260508043114 72 324 0.0 0.0 0.00 0.00 0.00 90 1016.1
20260508042114 72 324 0.0 0.0 0.00 0.00 0.00 90 1016.0
20260508041614 72 324 0.0 0.0 0.00 0.00 0.00 90 1016.0
20260508041114 72 324 0.0 1.0 0.00 0.00 0.00 90 1016.1
20260508040614 72 323 0.0 1.0 0.00 0.00 0.00 90 1016.1
20260508040121 72 324 0.0 0.0 0.00 0.00 0.00 89 1016.1
20260508035614 72 324 0.0 0.0 0.00 0.00 0.00 89 1016.1
20260508035114 72 323 0.0 0.0 0.00 0.00 0.00 89 1016.2
20260508034614 72 324 0.0 0.0 0.00 0.00 0.00 88 1016.3
20260508034114 73 324 0.0 0.0 0.00 0.00 0.00 88 1016.3
20260508033614 73 324 0.0 0.0 0.00 0.00 0.00 88 1016.2
20260508033114 73 324 0.0 0.0 0.00 0.00 0.00 87 1016.2
20260508032614 73 324 0.0 0.0 0.00 0.00 0.00 88 1016.1